GEFSMW_con_probscp_348.txt.gz
Probability
4 4 4 6 7 7 7 6 6 5 4 4 4 4 4 3 2 1 0 0 0 0 0 0 1 3 4 2 0 0 0 0 1 2 2 3 5 5 5 4 3 3 3
5 5 5 6 8 8 7 7 6 6 5 5 5 5 4 3 3 1 0 0 0 0 0 0 0 2 3 2 1 1 1 1 1 1 1 2 4 5 5 4 4 3 3
6 7 7 8 9 9 8 7 7 7 8 8 7 6 5 4 3 2 1 1 1 1 0 0 0 0 1 2 2 2 2 2 3 2 2 3 3 4 6 6 6 5 5
5 7 8 8 8 8 8 7 8 9 11 11 11 9 8 6 5 4 3 3 2 1 0 0 0 0 0 1 1 2 3 4 4 5 6 6 6 5 6 7 8 8 7
2 4 6 8 8 7 7 7 9 12 15 15 15 14 13 11 10 9 7 5 3 1 0 0 0 0 0 1 1 3 4 6 6 6 7 9 9 8 7 8 9 9 8
1 3 5 8 9 9 8 9 12 14 17 18 19 19 18 16 14 13 11 8 5 4 2 1 1 1 1 2 4 5 5 7 8 8 9 9 9 9 9 9 9 9 9
3 4 7 9 11 11 11 12 15 18 19 20 22 24 22 19 17 15 14 11 9 8 6 4 3 3 3 3 5 5 6 6 8 9 10 10 9 10 10 10 10 10 10
3 5 7 9 9 10 10 12 17 21 21 21 23 25 24 20 18 16 15 13 11 10 9 7 6 5 4 4 4 5 6 7 7 7 9 11 12 12 12 11 11 10 10
3 4 5 5 5 6 9 12 16 20 22 22 21 22 21 19 18 17 16 14 12 11 11 10 9 7 6 6 5 5 8 10 8 7 9 11 13 13 13 12 13 12 11
2 3 4 2 1 3 7 11 14 17 20 21 19 18 18 18 18 17 15 14 15 16 16 15 13 11 11 10 8 7 9 11 10 10 11 13 13 13 13 14 14 14 13
2 5 6 3 1 2 4 9 12 14 16 18 18 17 17 18 18 16 15 15 18 20 21 21 18 15 14 14 13 10 11 13 13 13 14 14 14 12 13 13 13 12 12
6 8 10 7 5 4 5 7 9 12 15 17 18 18 18 18 18 18 17 18 20 21 22 22 20 16 15 17 18 17 15 16 15 15 15 16 14 13 13 13 12 11 10
10 11 14 15 13 11 10 10 10 13 17 18 18 18 20 20 19 20 21 21 22 22 22 23 22 19 17 18 21 22 20 18 17 16 16 16 14 13 14 14 13 12 11
13 14 18 21 20 19 18 16 16 18 19 19 19 20 21 21 21 22 23 23 22 22 25 27 26 23 21 21 23 24 22 22 21 19 18 16 12 11 13 14 14 14 13
17 18 20 21 22 23 23 21 21 23 22 20 20 22 22 22 23 25 26 24 22 22 26 30 29 25 23 23 23 23 22 23 24 22 18 14 10 9 11 12 13 14 14
20 21 20 21 23 25 24 23 23 25 24 22 20 21 22 22 24 26 27 25 23 24 27 30 28 25 23 21 17 17 20 22 22 22 18 12 8 7 8 9 9 10 11
22 21 20 21 24 24 21 20 22 22 22 20 20 22 23 24 24 25 26 25 25 28 30 30 27 25 22 15 9 10 17 20 20 19 16 12 9 7 7 6 5 6 6
21 19 18 20 23 22 18 17 17 18 18 18 19 23 26 27 27 27 27 27 27 30 31 29 27 25 20 11 3 6 16 21 21 19 16 13 11 8 6 6 5 5 4
19 16 15 18 22 20 18 17 15 15 17 19 21 25 28 28 27 27 28 28 28 29 30 28 27 26 20 10 3 5 15 22 22 21 17 13 9 6 5 5 5 5 5
17 15 14 17 19 18 16 16 16 17 19 22 23 25 29 29 27 26 27 27 27 28 28 28 28 26 20 11 4 6 14 19 19 19 17 12 6 3 3 4 4 5 6
17 16 17 18 18 16 15 15 17 19 21 22 23 24 27 28 26 25 25 26 27 27 27 28 26 22 17 11 5 6 11 14 15 17 16 12 4 1 1 2 2 3 4
16 16 18 20 18 17 17 17 18 19 21 22 23 23 24 23 23 23 23 24 26 25 24 23 21 17 14 10 6 4 6 9 13 16 15 10 3 0 0 0 1 1 1
16 16 18 21 21 20 19 19 20 21 21 22 23 24 23 22 21 21 21 21 21 18 17 16 15 15 13 11 8 5 3 5 9 12 10 5 1 0 0 0 0 0 1
18 18 18 20 23 23 20 19 21 23 22 22 23 23 23 21 19 19 19 17 16 15 14 13 14 16 15 13 11 10 7 6 7 8 6 3 1 1 1 2 2 2 3
18 18 18 20 22 23 21 20 22 24 23 22 21 21 19 16 16 17 17 15 15 16 15 13 14 17 16 12 10 10 10 9 8 7 6 4 3 3 3 5 5 5 5
19 17 17 20 21 22 22 21 21 23 23 22 21 18 15 14 14 15 15 14 15 15 14 13 14 16 13 7 5 6 7 7 7 7 8 6 5 4 4 6 6 6 6

GEFSMW_con_probscp_354.txt.gz
Probability
19 14 9 8 10 17 25 26 22 21 22 21 17 13 10 9 8 9 11 12 10 9 7 7 9 9 7 6 7 8 8 6 6 7 7 6 6 7 9 11 12 12 12
22 18 14 12 13 20 27 28 25 23 22 21 18 14 12 11 9 10 14 15 12 9 7 7 8 8 7 7 9 11 11 8 8 9 8 8 7 7 8 9 10 11 12
25 25 22 19 20 24 29 30 31 30 27 23 19 16 15 14 12 13 17 18 16 11 8 7 7 7 8 9 11 14 14 11 9 9 8 8 8 8 7 7 8 10 12
27 28 29 27 25 26 30 37 41 40 35 28 22 19 18 17 17 17 19 21 20 16 12 9 9 9 9 10 12 14 14 12 9 8 9 9 9 8 7 6 7 8 10
27 30 33 33 29 26 31 42 50 48 41 34 28 24 21 21 20 20 20 22 22 20 17 15 15 14 12 12 14 15 15 14 11 10 11 12 11 10 7 6 6 7 7
26 29 34 35 30 27 31 42 52 53 46 38 33 28 26 25 22 21 20 20 19 19 19 21 22 20 17 19 20 19 17 16 15 14 13 13 12 12 11 9 7 7 7
22 25 30 32 29 28 32 42 53 54 47 41 36 33 31 28 25 23 21 18 16 17 20 24 25 24 23 24 25 24 21 20 18 16 14 13 12 14 16 14 10 8 8
16 21 26 29 27 27 32 43 52 54 47 41 39 37 34 30 27 26 23 20 17 18 21 25 27 27 26 27 27 27 26 26 22 17 14 13 13 15 17 17 14 11 9
12 17 24 28 27 26 30 39 49 53 49 44 41 41 37 32 29 28 25 22 21 21 25 28 29 29 29 31 31 29 28 29 26 19 15 14 15 15 16 17 16 14 12
14 18 24 27 28 26 29 36 46 51 50 46 43 41 39 36 32 29 27 25 26 28 32 34 33 32 33 36 35 31 28 28 27 23 19 17 16 16 16 17 18 18 17
18 21 24 27 28 27 28 34 42 47 48 47 45 42 41 40 36 33 32 32 33 35 36 37 36 33 33 35 35 30 26 25 25 22 19 18 17 16 16 17 18 21 22
20 22 24 26 28 29 30 33 36 40 43 45 42 40 42 41 38 37 37 38 39 39 37 36 35 31 31 31 31 28 25 25 24 21 19 18 18 18 18 18 21 23 23
24 25 27 31 34 34 35 36 35 36 39 40 37 36 39 41 38 36 36 37 38 38 35 33 32 31 30 29 29 29 28 28 26 23 21 20 21 22 22 22 24 23 20
33 35 38 42 42 42 42 41 38 37 39 40 37 35 37 40 37 34 33 34 35 34 31 29 29 30 30 29 30 31 33 31 29 28 26 24 23 23 23 23 23 20 18
40 45 50 48 45 44 46 44 40 40 42 43 42 40 39 39 37 34 32 32 31 30 27 27 27 28 27 26 26 29 33 34 32 32 30 26 21 18 18 19 18 16 15
40 46 49 45 41 42 44 42 40 42 45 45 44 42 38 35 33 31 30 29 27 25 24 25 26 24 21 18 17 21 28 33 34 34 31 25 19 16 14 12 10 10 10
39 40 39 36 35 38 42 40 39 41 44 43 40 37 33 29 27 25 26 27 26 25 26 27 26 24 19 13 10 12 21 29 33 35 33 26 21 19 17 14 9 7 7
40 40 36 32 33 38 41 38 35 36 38 36 33 30 27 26 26 25 25 26 27 28 28 28 27 26 19 13 10 11 18 26 31 33 34 30 24 21 19 17 13 10 9
43 42 36 32 34 39 41 37 32 31 31 29 26 25 26 27 29 29 28 26 27 27 26 24 26 26 20 13 10 12 18 24 25 26 25 24 21 17 15 15 15 13 12
44 41 36 33 36 41 43 38 31 27 26 24 24 25 27 29 30 30 28 26 24 24 23 21 23 23 19 13 8 9 16 20 19 17 15 13 11 10 8 10 13 13 12
43 41 37 35 37 41 41 37 30 26 25 24 25 27 28 29 31 31 28 25 23 23 23 23 22 22 18 11 5 6 11 15 16 13 11 8 6 4 5 7 10 10 9
42 41 39 37 37 37 36 34 31 28 28 29 30 30 29 29 30 31 28 25 24 25 24 23 21 19 14 8 3 3 6 10 12 12 10 7 4 2 2 3 5 5 4
38 36 34 34 36 35 34 34 33 31 31 32 33 32 30 29 31 31 27 24 24 24 23 20 17 15 11 7 5 3 3 6 8 9 8 5 3 1 1 2 2 2 2
34 30 29 32 34 32 31 32 32 32 31 32 33 30 27 26 27 26 23 19 18 19 19 17 13 11 9 7 6 5 5 5 6 6 5 5 3 3 3 3 4 4 5
34 30 29 31 30 27 27 30 31 31 30 29 27 24 21 20 20 19 16 13 10 11 12 11 10 10 9 7 5 6 8 8 6 5 5 6 7 6 6 7 7 8 10
36 33 30 28 26 24 25 30 32 31 29 27 23 19 17 16 16 15 11 8 7 6 6 7 8 9 9 7 5 5 8 9 7 5 6 8 10 9 8 8 8 10 13

GEFSMW_con_probscp_360.txt.gz
Probability
11 13 16 17 16 14 11 10 9 9 9 8 6 5 4 3 3 2 1 0 0 0 0 0 0 1 2 3 2 2 2 2 2 1 0 0 0 0 0 0 0 1 0
13 16 19 20 18 14 12 11 11 10 9 8 6 4 4 4 3 3 2 1 0 0 0 0 0 0 1 2 1 1 2 1 1 0 1 1 0 0 0 0 0 1 1
15 18 22 23 20 15 13 12 12 10 9 8 7 5 5 5 4 4 4 4 3 2 1 1 0 0 1 1 1 2 3 3 2 1 2 2 1 0 0 0 0 1 1
16 19 23 24 21 17 14 14 14 13 11 9 7 7 7 7 5 3 4 6 5 4 4 3 1 1 2 2 2 3 4 5 5 4 3 2 1 0 0 0 0 0 1
15 18 22 23 22 19 17 17 18 18 15 12 10 9 9 8 6 5 5 6 5 5 5 4 3 2 2 2 2 3 4 5 6 5 4 3 2 1 0 0 0 0 0
13 17 20 20 21 21 20 20 22 22 20 16 13 12 11 9 9 9 8 6 5 4 5 5 5 4 3 3 3 3 3 4 5 5 5 4 3 2 1 1 0 0 0
14 17 17 17 19 21 21 22 22 24 24 21 17 15 13 12 12 11 9 7 6 5 5 5 5 4 3 4 5 5 5 5 4 4 5 5 4 3 2 1 0 0 0
18 19 18 17 18 19 20 21 22 24 27 25 23 21 19 17 15 12 9 6 6 6 5 4 5 4 3 4 6 7 8 7 5 4 4 5 5 4 1 0 0 1 1
23 23 21 19 17 16 17 20 22 25 28 28 27 27 26 22 18 14 10 8 7 7 5 4 4 5 5 4 5 7 8 9 8 6 5 6 7 6 2 0 1 2 2
24 23 20 16 14 13 15 20 21 23 26 27 28 27 25 22 19 17 15 11 9 9 7 4 4 5 6 5 5 5 7 8 9 9 8 7 8 8 5 2 2 3 3
20 18 15 12 11 11 14 17 19 20 22 23 24 24 21 18 18 19 17 14 11 10 8 5 5 6 7 6 6 6 6 7 9 10 9 8 9 9 7 5 4 4 4
17 16 15 14 12 12 14 17 19 21 21 21 21 21 19 17 18 18 17 15 12 10 8 8 7 7 8 9 8 8 6 6 7 9 9 9 9 8 7 6 5 5 5
17 18 19 18 16 15 16 19 20 21 21 20 19 18 17 16 16 14 13 12 12 10 10 10 10 10 11 12 12 9 7 6 6 7 9 10 10 8 7 7 7 7 6
19 21 21 19 16 16 17 18 18 17 16 15 15 15 14 12 10 8 7 8 10 10 9 10 11 12 12 13 13 11 8 7 7 7 8 9 8 7 6 8 9 10 9
20 24 22 16 14 15 16 15 13 11 11 10 10 10 10 8 5 4 4 6 7 7 6 7 9 11 12 13 12 10 9 8 8 8 8 7 6 5 6 8 10 11 11
20 23 22 17 16 17 17 14 11 10 9 7 6 7 7 6 5 4 5 6 5 5 5 6 8 10 11 11 10 10 9 9 8 7 7 6 6 6 5 6 6 7 8
20 21 22 19 17 18 18 15 13 11 10 8 7 7 7 6 5 5 5 5 5 5 6 7 7 8 9 9 8 7 8 8 6 5 6 7 9 8 6 4 3 3 4
21 22 22 21 18 18 18 16 14 13 12 11 10 9 8 7 5 5 4 4 4 5 6 7 6 6 6 5 4 4 4 5 4 4 5 8 12 12 8 5 3 3 3
22 23 25 25 23 21 20 18 17 15 13 12 12 12 11 8 6 4 4 4 4 5 6 5 4 4 4 3 2 2 2 1 2 2 2 5 10 11 9 7 6 4 4
21 24 27 28 25 22 21 22 20 16 13 11 11 13 13 12 9 8 8 7 6 6 5 3 3 3 3 2 1 1 1 0 0 0 1 2 5 6 6 7 8 7 6
20 22 24 25 22 20 22 22 19 14 11 9 10 12 14 14 13 13 11 8 7 6 5 4 5 5 4 3 2 1 0 0 0 0 0 0 1 2 2 4 7 7 6
19 20 21 21 18 18 20 19 15 11 9 8 10 11 12 13 14 13 11 8 7 6 5 5 7 7 6 4 2 0 0 0 0 0 0 0 0 0 0 1 3 4 3
19 20 21 19 16 16 17 15 12 9 8 8 10 11 10 10 11 12 11 9 8 6 5 5 7 8 6 4 2 1 0 0 0 0 0 1 0 0 0 0 0 0 0
19 19 19 17 15 14 14 12 11 9 8 8 9 10 9 8 9 10 10 8 7 7 6 6 6 7 6 4 3 2 1 1 1 0 0 0 0 0 0 0 0 0 1
19 18 17 16 15 14 12 10 9 9 8 6 7 8 7 7 7 8 7 5 4 5 5 5 5 6 5 4 4 3 3 2 1 0 0 0 0 0 0 0 1 1 2
19 16 16 17 16 14 12 9 8 9 7 5 5 6 7 6 6 6 4 2 1 2 2 3 4 4 4 4 3 3 3 3 1 0 0 0 1 1 1 1 2 3 4

GEFSMW_con_probscp_366.txt.gz
Probability
0 0 1 2 2 2 3 5 6 5 3 1 1 1 1 0 0 1 1 0 0 0 0 0 0 0 0 0 0 0 0 0 0 0 0 0 0 0 0 0 0 1 3
0 1 3 4 4 4 5 6 5 4 3 2 1 0 0 0 0 1 2 1 1 0 0 0 0 0 0 0 0 0 0 0 0 0 0 0 0 0 0 0 0 1 2
1 3 5 6 6 6 7 6 5 4 4 4 2 2 1 1 1 2 3 3 3 4 4 2 0 0 0 0 0 0 0 0 1 1 1 1 0 0 0 0 0 1 1
1 3 5 7 6 6 6 6 5 5 4 5 5 5 4 4 3 3 4 4 6 7 7 5 2 1 0 0 1 1 1 1 2 3 2 2 1 1 1 1 0 0 0
2 3 5 7 7 4 3 5 5 5 5 6 6 7 7 6 6 6 5 5 6 7 6 5 4 2 1 1 2 2 2 3 4 4 3 3 3 3 4 3 2 2 1
3 3 4 6 6 4 3 3 4 5 4 5 6 7 8 8 7 7 7 7 7 5 4 4 4 3 3 3 3 3 3 3 4 3 3 4 4 5 5 5 4 3 1
4 4 5 6 7 5 3 3 4 4 5 5 7 8 9 9 8 8 7 7 7 5 4 3 3 3 3 3 3 3 3 3 3 3 3 3 4 4 4 5 4 3 1
3 3 5 7 7 5 3 2 3 3 4 6 8 10 10 10 9 9 8 7 6 5 4 3 3 3 3 3 3 3 3 3 3 3 3 3 3 4 4 4 4 3 2
1 2 4 5 5 2 1 2 3 3 4 5 8 11 11 10 10 10 9 7 6 5 4 3 3 3 3 3 3 3 3 3 3 3 4 4 4 5 4 4 4 3 3
0 1 1 2 1 0 1 3 5 5 5 5 7 10 11 11 11 11 9 8 7 7 5 4 4 4 4 4 4 4 3 3 3 4 4 5 6 7 6 5 4 4 4
1 2 1 0 0 0 1 3 5 7 7 7 8 10 12 12 12 13 12 9 8 8 8 6 6 6 6 6 6 5 4 4 4 4 4 5 7 8 9 8 6 6 5
2 3 3 1 1 1 1 3 6 9 9 9 9 10 12 13 14 14 13 10 8 9 9 7 6 6 6 6 6 6 6 6 5 4 4 5 6 8 10 10 9 9 8
2 3 3 3 2 2 3 5 8 9 9 9 10 11 11 12 13 13 13 10 8 8 8 7 6 6 6 6 6 6 6 6 6 6 5 5 5 6 7 8 9 9 10
4 3 3 4 4 4 4 7 9 10 8 8 10 11 10 10 11 11 11 9 8 8 7 7 6 6 6 6 6 6 6 6 6 5 5 4 4 4 4 5 6 8 9
6 5 4 4 5 5 5 7 10 10 9 10 10 10 9 8 9 9 9 8 7 7 7 6 6 6 6 5 4 4 5 5 5 5 5 5 5 4 3 2 3 6 8
7 5 4 4 5 5 6 8 10 10 10 12 12 10 8 7 6 6 6 6 5 5 6 6 5 5 4 3 2 3 5 6 6 6 6 6 6 5 2 1 1 2 4
6 5 4 4 4 4 6 9 10 9 10 13 12 10 8 7 5 4 4 4 3 3 4 4 4 3 3 1 1 2 5 7 7 7 7 7 7 6 4 2 1 1 1
6 6 6 5 4 5 8 10 10 10 11 11 11 11 9 7 5 5 4 3 3 2 3 3 3 3 1 0 0 1 3 6 8 8 8 8 7 6 5 5 4 2 1
6 7 7 6 5 5 8 10 11 10 10 11 11 11 9 7 6 6 5 4 3 2 3 3 3 2 1 0 0 0 2 5 7 8 7 5 4 3 3 4 5 4 3
6 6 7 7 6 5 7 11 12 11 10 10 11 10 8 7 7 7 6 5 4 3 4 3 2 1 0 0 0 0 1 3 6 6 4 2 1 1 1 2 4 4 3
7 6 7 9 8 7 7 10 11 11 11 11 11 9 7 6 6 8 8 7 6 6 5 3 1 0 0 0 0 0 0 1 2 2 2 1 1 0 0 1 2 2 2
7 7 7 9 10 9 8 8 10 11 11 12 11 8 6 5 5 7 8 7 7 6 4 2 0 0 0 0 0 0 0 0 0 0 1 1 1 0 0 0 1 1 1
6 5 6 7 7 6 6 7 9 10 10 10 9 7 6 5 5 5 5 6 6 5 3 2 1 1 1 1 1 1 0 0 0 1 1 0 0 0 0 0 0 0 0
5 5 5 5 4 3 4 6 7 8 9 8 7 7 8 8 7 5 4 4 5 4 3 3 3 2 2 2 2 2 1 1 0 1 1 1 1 0 0 0 0 0 0
6 6 6 5 3 1 1 3 4 7 9 9 7 7 8 8 9 7 4 3 4 3 2 3 3 3 3 2 2 2 2 1 0 0 1 2 1 0 0 0 0 0 0
7 7 6 5 3 1 0 1 3 5 9 10 8 7 7 8 9 8 4 2 2 1 1 2 3 3 2 1 1 1 1 1 0 0 1 1 1 0 0 0 0 0 0

GEFSMW_con_probscp_372.txt.gz
Probability
5 5 4 3 6 11 15 15 14 13 11 9 6 3 1 0 0 1 4 4 3 4 4 2 2 2 2 1 1 1 2 3 3 3 1 0 0 1 2 3 2 1 1
6 5 3 2 5 11 14 14 14 14 13 11 9 6 3 2 1 3 6 7 7 8 7 6 5 4 4 3 2 2 4 4 3 2 1 0 0 1 2 4 4 4 4
6 4 2 1 3 8 10 11 12 13 13 13 12 10 8 7 6 7 9 11 12 12 12 11 9 7 7 5 3 4 5 5 3 2 2 2 2 2 3 5 7 7 8
4 3 2 2 2 3 6 9 12 13 13 13 13 13 14 13 11 11 12 13 14 13 13 13 12 12 11 9 7 6 7 7 6 5 5 4 4 4 4 5 7 9 10
3 3 4 4 3 3 5 8 12 15 14 13 14 16 17 17 16 16 15 14 13 12 11 12 14 15 14 13 12 11 10 9 9 9 9 8 6 6 6 5 6 9 11
2 4 6 8 8 7 7 8 12 16 16 15 14 16 18 18 17 17 16 14 12 10 9 10 13 14 15 16 15 13 11 10 10 12 12 10 8 7 8 7 7 9 11
3 4 7 10 11 11 9 9 12 16 17 14 13 15 17 16 15 15 15 14 11 10 9 9 11 12 13 14 14 12 9 8 8 10 12 11 10 9 9 9 9 10 10
5 5 5 8 10 11 10 9 12 16 16 14 13 16 17 15 14 15 16 16 14 13 12 10 9 9 10 11 12 11 10 8 7 8 11 13 13 11 11 11 11 10 9
6 6 5 7 10 11 11 11 12 15 17 15 16 18 18 17 17 17 20 20 19 16 13 10 9 8 9 11 12 12 12 11 10 10 12 15 15 14 14 14 14 12 10
9 9 9 10 12 13 12 11 11 14 16 17 17 17 17 18 19 20 21 22 21 19 15 12 10 10 12 14 15 15 13 12 11 11 13 14 15 15 15 16 16 15 13
12 13 14 15 16 16 14 12 12 13 15 16 16 15 16 18 20 21 22 23 23 21 18 16 15 15 16 16 16 15 12 10 10 10 10 12 13 13 14 15 16 17 17
14 16 17 17 18 17 15 13 12 13 14 17 17 16 16 18 19 21 22 24 25 23 20 20 20 19 18 18 16 13 11 10 10 9 9 9 10 11 13 14 15 16 16
16 17 18 18 18 17 15 13 12 12 14 16 16 16 18 19 20 21 23 25 26 25 23 22 21 20 19 18 16 14 13 12 11 10 9 9 9 11 11 11 12 13 12
19 19 20 19 17 15 13 12 10 10 12 15 16 17 19 20 22 23 24 24 24 24 24 23 21 20 19 18 17 16 15 15 14 13 12 11 11 10 8 7 8 9 10
24 25 25 22 18 14 13 12 11 12 14 16 18 19 20 21 22 23 23 23 22 22 21 21 20 19 18 17 16 16 17 17 16 16 15 13 10 8 5 4 5 8 10
30 31 31 26 19 15 14 15 14 15 18 19 20 20 21 21 21 21 21 21 21 20 19 18 17 17 16 13 12 13 15 16 17 17 15 12 9 7 6 4 4 5 7
33 34 32 26 20 15 15 16 17 18 20 22 21 21 21 21 20 20 20 20 20 19 18 17 16 15 13 9 7 8 10 13 15 16 14 11 9 8 8 7 5 4 5
34 34 30 23 17 14 14 16 18 18 19 21 22 21 20 21 21 21 21 21 20 19 17 17 17 15 11 6 4 5 6 9 10 12 12 11 9 9 10 10 8 7 8
32 31 26 20 15 14 16 18 19 18 19 23 25 23 22 22 22 23 22 20 20 18 16 15 15 13 9 4 2 3 5 7 7 9 9 8 8 8 8 10 11 11 11
29 26 22 18 16 17 20 21 20 19 21 25 28 27 26 23 21 21 21 20 19 16 13 11 10 9 7 4 1 2 5 6 7 7 6 5 4 4 5 8 11 11 11
24 21 19 18 19 19 21 22 21 19 19 21 24 25 25 23 21 21 22 21 17 13 11 9 8 7 6 4 2 2 4 6 6 6 5 4 2 1 2 4 6 6 6
19 19 18 17 18 20 22 24 23 19 16 16 16 17 18 19 19 20 21 19 16 12 10 10 9 9 7 6 4 2 2 4 6 6 5 3 1 0 0 1 1 1 1
17 17 17 16 16 19 23 26 26 21 17 14 12 11 12 14 16 17 17 16 13 11 9 9 10 10 8 7 5 2 1 2 4 5 3 1 0 0 0 0 0 0 1
14 15 15 15 16 18 22 25 25 22 18 15 12 9 9 11 13 15 14 12 10 8 8 8 9 9 8 7 5 3 2 2 3 4 3 1 1 1 1 1 1 1 2
13 13 13 14 16 18 20 21 21 19 18 16 11 8 8 10 12 13 12 10 8 7 7 8 8 8 7 5 3 3 2 2 3 5 5 4 3 3 2 2 2 3 3
14 13 12 13 17 18 18 19 18 17 17 15 11 9 9 10 11 12 11 8 7 7 6 7 7 7 6 3 1 1 1 2 4 6 6 6 5 4 3 3 3 3 3

GEFSMW_con_probscp_378.txt.gz
Probability
14 13 11 14 17 19 22 27 28 29 29 28 28 25 21 17 16 19 25 28 27 24 21 20 21 21 19 19 16 14 12 10 8 7 7 7 10 13 13 12 10 10 11
18 15 14 16 19 20 24 27 28 29 30 29 27 25 22 19 17 21 28 31 29 25 22 21 23 23 21 20 18 16 14 13 10 10 8 7 9 11 12 12 12 11 12
21 20 20 22 23 23 25 28 29 30 31 29 27 24 24 22 20 22 27 29 28 25 23 23 25 25 22 20 18 17 16 14 13 12 9 7 9 11 12 12 12 12 12
23 24 27 28 26 25 26 28 30 32 31 30 27 24 23 23 22 22 23 25 24 23 22 23 25 25 23 20 19 19 17 15 13 11 9 10 13 14 13 12 11 11 11
23 26 30 31 27 24 24 27 31 33 33 31 29 26 23 23 24 23 22 23 24 24 23 24 26 27 24 22 22 21 19 16 14 12 11 12 14 14 14 11 10 10 10
22 25 30 31 26 22 23 27 34 38 37 34 31 29 28 27 27 24 21 21 23 25 26 26 27 27 24 22 23 22 19 18 16 13 13 13 13 12 12 10 9 10 12
22 25 29 30 26 23 24 30 38 42 41 38 34 32 32 31 27 23 19 18 21 24 27 28 28 28 25 21 21 20 18 17 16 15 14 14 13 11 11 10 10 11 13
24 25 28 29 28 27 27 33 41 44 43 40 36 34 34 31 27 23 20 19 20 22 25 29 32 32 28 23 21 22 21 20 19 16 14 13 13 13 13 12 11 11 12
26 27 29 31 31 29 28 33 40 43 40 37 35 34 34 32 28 26 24 22 21 21 24 29 33 33 30 27 25 25 25 24 22 17 13 13 13 13 15 15 13 11 10
28 30 32 32 31 29 27 30 37 39 37 34 33 33 34 33 30 28 27 25 24 24 25 28 31 32 32 31 29 28 27 26 23 18 15 15 14 14 15 16 16 14 11
30 31 33 31 29 28 26 27 30 33 33 32 32 32 33 32 29 28 28 28 28 28 27 28 29 31 33 33 31 29 27 24 22 19 17 17 16 15 15 16 17 17 15
35 35 35 33 32 32 29 26 26 27 27 28 30 30 31 29 27 27 28 29 29 29 30 29 29 31 34 33 31 29 27 24 22 21 20 19 18 17 16 15 15 15 16
41 41 40 38 38 40 37 29 25 24 23 25 27 28 27 26 26 27 30 30 29 29 30 30 30 33 34 31 29 28 25 23 23 22 20 18 17 16 16 16 14 12 11
46 46 45 42 43 46 43 34 27 25 24 25 26 26 26 26 28 30 32 32 30 29 30 30 32 33 32 28 26 25 23 22 23 22 19 16 15 14 14 15 15 12 9
46 47 46 44 45 47 46 39 31 28 28 29 29 29 29 30 33 35 35 34 31 29 30 31 31 31 28 25 23 22 22 22 23 21 18 15 13 12 11 12 13 13 11
43 45 46 46 47 48 48 44 36 32 34 35 33 32 32 34 37 38 37 35 32 30 30 30 30 27 23 20 17 17 20 23 22 20 17 14 12 10 8 7 7 9 10
42 43 44 46 47 47 47 44 38 34 37 38 36 35 34 37 38 39 38 36 34 33 31 30 29 26 20 15 11 11 17 20 20 19 17 14 11 9 7 6 5 6 7
43 42 42 45 47 47 44 41 37 35 37 38 38 38 39 39 40 40 40 40 40 38 35 32 31 27 19 11 7 8 13 17 17 17 16 14 11 10 8 6 6 7 8
41 41 40 42 45 45 43 40 36 34 35 37 39 42 42 41 41 42 44 45 44 40 36 34 33 30 20 11 6 7 11 14 14 14 13 12 11 9 6 5 5 7 8
36 36 37 39 40 41 41 38 33 30 31 34 38 40 41 40 39 43 47 47 43 37 33 32 32 30 24 14 7 8 10 11 10 11 10 9 8 6 4 3 5 6 7
29 30 33 35 36 37 38 36 32 28 28 30 33 35 35 33 33 39 46 46 41 34 30 29 29 29 25 16 8 7 8 9 8 8 8 7 5 2 1 1 3 4 5
21 23 26 30 33 36 37 36 32 29 28 28 28 29 29 26 26 35 42 43 39 32 27 26 27 26 22 15 8 5 5 5 6 6 6 5 3 1 0 0 1 2 2
17 18 20 24 28 33 36 35 33 31 29 27 26 26 25 24 26 31 35 36 34 29 25 25 25 24 21 15 9 5 3 2 3 4 3 2 1 0 0 0 0 1 2
17 17 19 22 25 29 31 31 32 32 29 26 25 25 24 24 27 28 28 28 28 27 26 25 24 23 20 15 9 6 5 3 2 2 2 1 1 1 1 1 1 2 4
18 18 20 23 25 26 26 28 30 29 27 24 23 23 24 24 25 25 23 20 20 21 20 20 19 19 16 11 7 5 5 4 4 3 3 4 5 5 4 3 3 4 5
19 20 21 23 25 25 25 28 29 27 25 24 21 21 22 23 23 22 18 14 12 12 12 12 13 13 11 7 4 3 4 4 4 4 5 6 7 7 6 5 5 5 4

GEFSMW_con_probscp_384.txt.gz
Probability
21 20 18 17 18 18 17 16 14 13 11 9 8 8 7 8 7 5 3 3 6 9 8 6 4 4 2 1 0 0 0 0 0 0 0 0 0 0 0 0 0 0 0
20 19 19 20 21 19 16 14 13 12 10 10 9 8 7 7 7 5 4 4 7 9 10 8 6 4 3 1 0 0 0 0 0 0 0 0 0 0 0 0 0 0 0
19 19 20 23 23 19 14 12 11 10 10 11 11 9 8 8 6 5 5 5 7 9 10 10 8 6 4 2 0 0 1 1 0 0 0 0 0 0 0 0 0 0 0
20 20 20 23 22 17 13 12 11 10 11 11 11 10 9 8 6 4 4 5 6 8 10 11 10 8 6 3 0 0 1 1 1 1 1 1 0 0 0 0 0 0 0
19 19 19 22 22 18 14 13 11 10 10 10 9 8 7 6 4 3 3 4 6 9 11 12 11 10 9 5 2 2 2 2 2 2 2 2 1 0 0 0 0 0 1
18 18 20 23 24 21 18 15 12 10 9 7 6 5 4 3 3 3 4 4 6 8 10 13 13 12 11 8 5 5 4 4 3 2 3 3 2 1 1 1 1 1 1
21 21 22 25 26 25 22 18 15 12 9 7 5 4 4 3 3 4 4 5 6 8 9 12 14 14 12 10 8 6 5 4 3 2 3 4 4 3 3 2 2 1 1
23 23 24 25 26 25 22 19 17 15 13 10 8 6 5 4 5 6 5 5 7 9 9 11 13 13 12 10 8 7 6 5 4 3 4 5 5 5 4 3 3 3 2
21 23 24 24 23 22 19 18 18 18 15 12 10 9 8 7 7 6 6 7 8 9 10 11 11 12 11 9 7 6 6 6 5 4 4 5 6 6 4 3 3 3 3
21 23 24 23 21 19 18 18 18 16 14 12 11 11 11 10 9 7 7 8 9 10 11 11 11 12 11 9 7 6 6 7 6 4 4 5 6 6 5 4 4 3 2
23 25 25 24 20 17 15 16 15 13 12 13 12 12 12 11 9 6 6 8 9 11 13 14 13 14 14 12 10 9 9 9 6 5 4 6 7 7 6 5 4 2 1
23 23 24 23 19 15 13 13 13 12 12 14 15 15 13 11 9 6 5 7 9 11 14 15 15 16 16 15 15 15 14 13 10 7 7 7 7 7 6 4 3 2 1
20 18 18 18 16 14 14 16 16 14 14 17 18 17 15 11 8 7 7 9 10 12 14 16 17 19 18 17 16 17 17 16 14 12 10 9 7 7 6 3 3 3 2
19 16 14 15 15 16 17 19 18 17 18 20 19 18 15 11 7 6 8 10 12 13 14 15 16 18 18 16 15 15 16 16 14 13 11 10 8 6 5 3 3 3 3
22 20 18 18 19 21 20 20 19 19 20 20 18 16 13 9 7 7 10 11 12 13 14 14 14 15 16 16 14 14 14 14 13 11 10 9 7 5 4 3 3 4 4
27 26 25 24 23 22 21 20 20 19 19 17 15 12 10 9 10 11 13 13 12 13 14 13 12 12 14 14 13 12 13 12 11 9 8 8 6 5 4 3 3 4 4
26 26 27 25 22 20 21 21 20 20 18 15 12 11 11 11 13 14 14 14 14 15 15 13 12 11 12 11 10 10 11 11 9 8 7 7 6 6 6 5 3 3 3
21 22 24 22 19 18 20 21 20 19 17 13 11 10 11 12 12 13 14 14 15 17 16 14 11 10 9 9 8 8 10 10 8 7 6 6 7 8 8 7 5 2 1
17 18 20 19 15 13 15 17 16 15 13 12 11 9 9 10 11 11 12 13 13 14 14 13 11 10 7 5 4 5 8 9 7 6 6 6 7 7 7 7 6 2 1
13 13 14 14 10 8 9 9 9 8 8 9 9 8 7 8 10 11 12 12 10 10 10 10 10 9 6 3 1 3 7 9 7 5 5 6 6 5 5 5 5 3 1
10 10 10 10 8 6 5 4 4 4 5 6 7 7 7 8 11 12 12 12 11 10 10 8 8 8 5 2 0 1 5 7 6 5 5 6 5 3 2 3 3 2 2
9 9 10 9 7 5 4 3 3 3 4 5 6 7 7 9 12 12 12 12 14 13 11 8 7 6 5 2 1 1 2 4 5 5 5 4 3 1 1 1 1 1 1
10 10 9 8 6 5 4 2 2 3 5 6 6 7 7 8 10 11 10 11 13 14 12 11 10 9 7 3 2 1 1 1 3 3 3 2 1 0 0 0 0 0 0
10 9 8 7 7 7 6 4 3 4 5 5 5 5 5 5 6 7 9 10 11 11 11 12 13 12 10 6 4 3 1 1 1 1 1 0 0 0 0 0 0 0 0
9 8 7 7 8 9 8 6 6 6 5 4 4 4 4 3 2 3 6 7 7 7 7 9 10 10 8 6 4 3 2 2 1 0 0 0 0 0 0 0 0 0 0
9 8 7 7 9 9 8 8 7 7 6 5 4 4 4 2 1 1 3 4 4 3 3 3 5 5 4 3 2 1 1 1 1 0 0 0 0 0 0 0 0 0 0